DW3800 Weather Reports


time (UTC)temp
F
wind
direction
speed
knots
gust
knots
rain 1hr
in
rain 24hr
in
rain mn
in
humidity
%
barometer
mb
20260504025605 58 275 0.0 0.9 0.00 0.00 0.00 40 1006.4
20260504025101 58 262 0.0 0.9 0.00 0.00 0.00 41 1006.4
20260504024559 58 225 0.0 0.0 0.00 0.00 0.00 41 1006.4
20260504024055 58 188 0.0 0.9 0.00 0.00 0.00 40 1006.7
20260504023552 59 214 0.0 0.0 0.00 0.00 0.00 40 1006.6
20260504023048 60 204 0.0 0.9 0.00 0.00 0.00 39 1006.4
20260504022544 60 224 0.0 1.7 0.00 0.00 0.00 39 1006.6
20260504022040 60 141 0.0 0.0 0.00 0.00 0.00 38 1006.4
20260504021538 60 200 0.0 0.0 0.00 0.00 0.00 39 1006.4
20260504021035 60 194 0.0 0.0 0.00 0.00 0.00 39 1006.5
20260504020532 60 165 0.0 0.0 0.00 0.00 0.00 40 1006.4
20260504020028 61 210 0.0 0.0 0.00 0.00 0.00 39 1006.7
20260504015524 62 204 0.0 0.0 0.00 0.00 0.00 39 1006.6
20260504015020 63 185 0.0 0.9 0.00 0.00 0.00 37 1006.6
20260504014517 63 177 0.9 2.6 0.00 0.00 0.00 35 1006.6
20260504014014 64 179 1.7 2.6 0.00 0.00 0.00 34 1006.5
20260504013512 64 192 1.7 2.6 0.00 0.00 0.00 34 1006.6
20260504013009 64 222 2.6 4.3 0.00 0.00 0.00 34 1006.7
20260504012506 64 196 0.9 4.3 0.00 0.00 0.00 34 1006.6
20260504012004 65 219 0.9 4.3 0.00 0.00 0.00 34 1006.8
20260504011500 65 212 4.3 5.2 0.00 0.00 0.00 33 1006.5
20260504010955 65 215 1.7 5.2 0.00 0.00 0.00 33 1006.6
20260504010452 66 232 0.9 1.7 0.00 0.00 0.00 34 1006.7
20260504005948 66 182 0.9 4.3 0.00 0.00 0.00 33 1006.6
20260504005445 66 190 1.7 4.3 0.00 0.00 0.00 32 1006.7
20260504004943 67 183 1.7 4.3 0.00 0.00 0.00 31 1006.6
20260504004440 67 199 2.6 5.2 0.00 0.00 0.00 31 1006.7
20260504003937 66 217 2.6 6.1 0.00 0.00 0.00 32 1006.8
20260504003433 67 176 0.9 5.2 0.00 0.00 0.00 32 1006.7
20260504002930 68 216 1.7 2.6 0.00 0.00 0.00 31 1006.7
20260504002427 67 215 0.0 2.6 0.00 0.00 0.00 31 1006.8
20260504001924 67 205 1.7 5.2 0.00 0.00 0.00 30 1006.8
20260504001422 67 241 2.6 7.0 0.00 0.00 0.00 30 1006.7
20260504000918 68 224 1.7 5.2 0.00 0.00 0.00 29 1007.0
20260504000416 67 205 2.6 5.2 0.00 0.00 0.00 29 1007.1
20260503235913 68 204 7.0 7.8 0.00 0.00 0.00 28 1007.0
20260503235410 69 190 3.5 7.0 0.00 0.00 0.00 28 1007.1
20260503234908 69 161 1.7 8.7 0.00 0.00 0.00 27 1007.0
20260503234405 69 230 3.5 8.7 0.00 0.00 0.00 28 1006.8
20260503233903 69 229 4.3 7.8 0.00 0.00 0.00 27 1007.0
20260503233359 69 231 0.9 7.8 0.00 0.00 0.00 27 1006.8
20260503232855 69 162 3.5 6.1 0.00 0.00 0.00 28 1006.9
20260503232353 69 231 4.3 6.1 0.00 0.00 0.00 27 1007.0
20260503231851 69 244 5.2 7.8 0.00 0.00 0.00 27 1007.3
20260503231347 69 229 2.6 7.8 0.00 0.00 0.00 27 1007.1
20260503230843 69 259 1.7 7.0 0.00 0.00 0.00 26 1007.0
20260503230340 69 197 1.7 7.8 0.00 0.00 0.00 26 1007.1
20260503225839 69 259 3.5 5.2 0.00 0.00 0.00 26 1007.2
20260503225334 69 232 4.3 13.0 0.00 0.00 0.00 26 1007.2
20260503224830 69 217 7.8 11.3 0.00 0.00 0.00 27 1007.2
20260503224328 69 231 3.5 6.1 0.00 0.00 0.00 27 1007.1
20260503223826 70 155 3.5 6.1 0.00 0.00 0.00 26 1007.3
20260503223323 70 129 0.9 1.7 0.00 0.00 0.00 26 1007.3
20260503222818 70 266 1.7 4.3 0.00 0.00 0.00 27 1007.3
20260503222317 69 232 4.3 6.1 0.00 0.00 0.00 27 1007.5
20260503221815 69 160 0.9 8.7 0.00 0.00 0.00 27 1007.2
20260503221313 69 184 3.5 9.6 0.00 0.00 0.00 26 1007.5
20260503220809 70 226 4.3 11.3 0.00 0.00 0.00 26 1007.5
20260503220306 69 215 5.2 7.8 0.00 0.00 0.00 26 1007.5
20260503215803 68 235 2.6 7.0 0.00 0.00 0.00 27 1007.5
20260503215259 69 255 6.1 8.7 0.00 0.00 0.00 26 1007.6
20260503214757 69 158 0.9 7.0 0.00 0.00 0.00 26 1007.7
20260503214254 69 244 1.7 12.2 0.00 0.00 0.00 26 1007.8
20260503213752 70 267 2.6 5.2 0.00 0.00 0.00 25 1007.6
20260503213249 69 218 0.9 7.0 0.00 0.00 0.00 25 1007.5
20260503212746 68 246 3.5 11.3 0.00 0.00 0.00 27 1007.7
20260503212244 69 205 7.0 11.3 0.00 0.00 0.00 25 1007.4
20260503211741 69 176 0.9 7.0 0.00 0.00 0.00 26 1007.4
20260503211238 69 242 7.0 9.6 0.00 0.00 0.00 26 1007.8
20260503210733 69 199 4.3 11.3 0.00 0.00 0.00 26 1007.8
20260503210231 70 190 0.0 6.1 0.00 0.00 0.00 29 1007.8
20260503205726 69 172 1.7 7.8 0.00 0.00 0.00 26 1008.0
20260503205222 69 92 1.7 8.7 0.00 0.00 0.00 25 1007.8
20260503204718 70 215 5.2 7.0 0.00 0.00 0.00 26 1007.7
20260503204217 69 266 1.7 5.2 0.00 0.00 0.00 30 1007.8
20260503203713 69 152 3.5 12.2 0.00 0.00 0.00 29 1007.8
20260503203211 69 276 4.3 7.8 0.00 0.00 0.00 29 1007.9
20260503202708 69 196 2.6 7.8 0.00 0.00 0.00 28 1007.7
20260503202206 69 153 1.7 6.1 0.00 0.00 0.00 30 1008.0
20260503201704 68 204 1.7 11.3 0.00 0.00 0.00 32 1008.1
20260503201201 68 247 5.2 11.3 0.00 0.00 0.00 31 1008.0
20260503200657 69 248 2.6 11.3 0.00 0.00 0.00 29 1008.0
20260503200153 69 216 5.2 13.0 0.00 0.00 0.00 31 1008.1
20260503195650 68 237 2.6 9.6 0.00 0.00 0.00 30 1008.1
20260503195147 68 253 7.0 11.3 0.00 0.00 0.00 30 1008.1
20260503194644 69 203 7.8 14.8 0.00 0.00 0.00 30 1008.2
20260503194140 69 231 2.6 8.7 0.00 0.00 0.00 33 1008.1
20260503193637 70 238 5.2 7.0 0.00 0.00 0.00 31 1008.2
20260503193132 69 161 4.3 7.8 0.00 0.00 0.00 32 1008.3
20260503192628 68 192 1.7 8.7 0.00 0.00 0.00 33 1008.2
20260503192124 68 193 3.5 7.8 0.00 0.00 0.00 35 1008.2
20260503191621 69 264 5.2 12.2 0.00 0.00 0.00 34 1008.2
20260503191118 69 150 5.2 8.7 0.00 0.00 0.00 33 1008.3
20260503190615 68 188 2.6 6.1 0.00 0.00 0.00 36 1008.2
20260503190112 69 188 1.7 2.6 0.00 0.00 0.00 35 1008.4
20260503185608 68 292 4.3 8.7 0.00 0.00 0.00 34 1008.3
20260503185108 68 229 6.1 9.6 0.00 0.00 0.00 33 1008.7
20260503184604 68 240 11.3 13.0 0.00 0.00 0.00 34 1008.6
20260503184101 68 177 5.2 7.8 0.00 0.00 0.00 37 1008.6
20260503183557 68 208 3.5 7.8 0.00 0.00 0.00 39 1008.6
20260503183055 69 246 5.2 7.8 0.00 0.00 0.00 39 1008.8
20260503182553 68 200 6.1 7.0 0.00 0.00 0.00 39 1008.6
20260503182051 68 247 3.5 7.0 0.00 0.00 0.00 38 1008.4
20260503181547 69 167 0.9 5.2 0.00 0.00 0.00 38 1008.8
20260503181044 68 237 4.3 5.2 0.00 0.00 0.00 37 1008.8
20260503180541 69 141 1.7 4.3 0.00 0.00 0.00 38 1008.9
20260503180038 67 205 2.6 6.1 0.00 0.00 0.00 38 1008.8
20260503175536 68 303 7.0 9.6 0.00 0.00 0.00 39 1008.9
20260503175033 68 311 7.0 8.7 0.00 0.00 0.00 39 1008.9
20260503174530 68 253 1.7 4.3 0.00 0.00 0.00 41 1008.9
20260503174026 68 291 4.3 6.1 0.00 0.00 0.00 41 1008.8
20260503173521 68 160 5.2 7.8 0.00 0.00 0.00 41 1008.8
20260503173017 68 215 3.5 6.1 0.00 0.00 0.00 42 1009.0
20260503172516 67 169 2.6 12.2 0.00 0.00 0.00 41 1009.0
20260503172012 67 34 1.7 8.7 0.00 0.00 0.00 41 1008.9
20260503171509 67 225 7.0 11.3 0.00 0.00 0.00 41 1009.0
20260503171006 67 262 7.0 8.7 0.00 0.00 0.00 41 1009.0
20260503170503 66 286 3.5 5.2 0.00 0.00 0.00 41 1009.1
20260503150855 62 276 2.6 9.6 0.00 0.00 0.00 48 1008.7
20260503150351 62 284 5.2 9.6 0.00 0.00 0.00 48 1008.8
20260503140315 59 210 3.5 6.1 0.00 0.00 0.00 51 1008.4
20260503131245 56 203 3.5 5.2 0.00 0.00 0.00 53 1008.0
20260503130742 56 226 4.3 5.2 0.00 0.00 0.00 53 1007.9
20260503130239 56 256 0.9 2.6 0.00 0.00 0.00 53 1008.1
20260503120205 54 80 0.0 0.9 0.00 0.00 0.00 55 1007.5
20260503110633 52 112 0.9 2.6 0.00 0.00 0.00 56 1006.9
20260503110130 53 148 0.9 4.3 0.00 0.00 0.00 55 1007.0
20260503081434 56 65 0.9 0.9 0.00 0.00 0.00 57 1008.1
20260503080931 56 97 0.9 2.6 0.00 0.00 0.00 56 1007.9
20260503080428 56 112 1.7 1.7 0.00 0.00 0.00 56 1008.0
20260503072904 57 125 1.7 6.1 0.00 0.00 0.00 55 1008.4
20260503072401 57 72 1.7 6.1 0.00 0.00 0.00 55 1008.7
20260503071858 57 102 0.9 4.3 0.00 0.00 0.00 56 1008.8
20260503071355 57 106 0.9 5.2 0.00 0.00 0.00 56 1008.9
20260503070851 57 139 1.7 2.6 0.00 0.00 0.00 56 1008.9
20260503070349 57 106 0.9 4.3 0.00 0.00 0.00 56 1009.0
20260503060309 57 134 1.7 6.1 0.00 0.00 0.00 51 1010.1
20260503054755 57 134 2.6 6.1 0.00 0.00 0.00 51 1010.3
20260503054252 57 125 1.7 4.3 0.00 0.00 0.00 51 1010.3
20260503053749 57 154 1.7 4.3 0.00 0.00 0.00 50 1010.5
20260503053243 58 116 0.9 2.6 0.00 0.00 0.00 50 1010.5
20260503052738 58 44 0.9 5.2 0.00 0.00 0.00 50 1010.4
20260503052236 58 92 2.6 5.2 0.00 0.00 0.00 49 1010.5
20260503051730 58 101 2.6 5.2 0.00 0.00 0.00 50 1010.4
20260503051228 58 97 3.5 6.1 0.00 0.00 0.00 49 1010.5
20260503050725 58 95 1.7 4.3 0.00 0.00 0.00 50 1010.6
20260503050221 58 103 3.5 5.2 0.00 0.00 0.00 49 1010.5
20260503045719 58 116 2.6 2.6 0.00 0.00 0.00 49 1010.6
20260503045216 58 122 0.9 2.6 0.00 0.00 0.00 50 1010.5
20260503044712 58 97 0.9 2.6 0.00 0.00 0.00 51 1010.7
20260503044210 58 121 1.7 2.6 0.00 0.00 0.00 49 1010.7
20260503043707 59 101 0.0 5.2 0.00 0.00 0.00 50 1010.8
20260503043205 59 121 1.7 1.7 0.00 0.00 0.00 49 1011.0
20260503042700 59 116 0.0 1.7 0.00 0.00 0.00 48 1011.0
20260503042156 59 114 3.5 4.3 0.00 0.00 0.00 47 1011.0
20260503041652 60 97 1.7 1.7 0.00 0.00 0.00 46 1011.3
20260503041150 60 106 0.9 2.6 0.00 0.00 0.00 46 1011.4
20260503040648 60 112 3.5 4.3 0.00 0.00 0.00 46 1011.4
20260503040145 60 133 0.9 6.1 0.00 0.00 0.00 46 1011.3
20260503035642 60 134 0.9 0.9 0.00 0.00 0.00 46 1011.3
20260503035139 60 136 0.9 2.6 0.00 0.00 0.00 45 1011.5
20260503034636 60 134 0.9 1.7 0.00 0.00 0.00 46 1011.8
20260503034133 60 146 0.9 2.6 0.00 0.00 0.00 45 1011.5
20260503033630 60 144 0.9 1.7 0.00 0.00 0.00 45 1011.7
20260503033128 60 110 0.9 2.6 0.00 0.00 0.00 45 1012.0
20260503032627 60 115 1.7 5.2 0.00 0.00 0.00 44 1011.8
20260503032125 60 105 0.0 4.3 0.00 0.00 0.00 45 1012.0
20260503031622 60 167 2.6 4.3 0.00 0.00 0.00 45 1012.2
20260503031119 60 162 1.7 4.3 0.00 0.00 0.00 45 1012.2
20260503030615 61 142 2.6 4.3 0.00 0.00 0.00 44 1012.5
20260503030112 60 163 0.9 2.6 0.00 0.00 0.00 45 1012.6